Location: Killarney Provincial Park Observatory
(46.0124°N, 81.4000°W)
Time: 20:51:53
(UTC-04:00)

Iridium 22 - Visible Passes

Search period start: 24 April 2017 00:00
Search period end: 04 May 2017 00:00
Orbit: 776 x 779 km, 86.4° (Epoch: 23 April)

Date Brightness Start Highest point End Pass type
(mag) Time Alt. Az. Time Alt. Az. Time Alt. Az.
24 Apr 6.0 05:43:51 10° S 05:49:00 67° E 05:54:11 10° N visible
25 Apr 7.1 05:10:50 10° SSE 05:15:36 38° E 05:20:24 10° NNE visible
26 Apr 8.0 04:38:24 10° SE 04:42:20 22° E 04:46:16 10° NNE visible
27 Apr 8.4 04:07:02 10° E 04:09:11 13° ENE 04:11:21 10° NE visible
27 Apr 5.6 05:43:52 10° S 05:49:05 87° W 05:54:21 10° N visible
28 Apr 6.4 05:10:34 10° SSE 05:15:36 53° E 05:20:42 10° NNE visible
29 Apr 7.4 04:37:46 10° SE 04:42:16 30° E 04:46:47 10° NNE visible
30 Apr 8.2 04:05:39 10° ESE 04:09:02 18° ENE 04:12:27 10° NE visible
01 May 5.8 05:10:29 10° S 05:15:40 75° E 05:20:54 10° N visible
02 May 6.7 04:37:22 10° SSE 04:42:15 42° E 04:47:09 10° NNE visible
03 May 7.7 04:04:48 10° SE 04:08:57 25° E 04:13:07 10° NNE visible
